Hyderabad, India

1:52 AM IST on February 09, 2016 (GMT +0530)
Hyderabad

Weather History for VOHY - October, 2011

Change the Weather History Date:

Saturday, October 22, 2011

  Actual Average Record
Temperature  
Mean Temperature 80 °F -  
Max Temperature 92 °F 82 °F 93 °F (2000)
Min Temperature 69 °F 65 °F 66 °F (2001)
Cooling Degree Days 16    
Growing Degree Days 30 (Base 50)    
Moisture  
Dew Point 54 °F    
Average Humidity 39    
Maximum Humidity 81    
Minimum Humidity 24    
Precipitation  
Precipitation 0.00 in 0.06 in - ()
Sea Level Pressure  
Sea Level Pressure 29.87 in    
Wind  
Wind Speed 3 mph ()    
Max Wind Speed 9 mph    
Max Gust Speed -    
Visibility 3.5 miles    
Events      
Averages and records for this station are not official NWS values.
T = Trace of Precipitation, MM = Missing Value Source: Averaged Metar Reports

Daily Weather History Graph

Daily Weather History Graph

Search for Another Location

Airport or City:

Trip Planner

Search our weather history database for the weather conditions in past years. The results will help you decide how hot, cold, wet, or windy it might be!

Date:

Astronomy

Oct. 22, 2011 Rise Set
Actual Time 6:10 AM IST 5:50 PM IST
Civil Twilight 5:48 AM IST 6:12 PM IST
Nautical Twilight 5:23 AM IST 6:37 PM IST
Astronomical Twilight 4:58 AM IST 7:02 PM IST
Moon 1:23 AM IST (10/22) 2:12 PM IST (10/22)
Length of Visible Light 12h 23m
Length of Day
11h 39m
Waning Crescent, 28% of the Moon is Illuminated
Oct 22
Waning Crescent
Oct 27
New
Nov 2
First Quarter
Nov 11
Full
Nov 18
Last Quarter

Hourly Weather History & Observations

Time (IST) Temp. Heat Index Dew Point Humidity Pressure Visibility Wind Dir Wind Speed Gust Speed Precip Events Conditions
2:30 AM 73 °F - 65 °F 70% 29.79 in 2 mi Calm Calm - -   Haze
5:30 AM 70 °F - 65 °F 81% 29.81 in 2 mi Calm Calm - -   Haze
7:10 AM 68.0 °F - 60.8 °F 78% 29.95 in 1.9 mi Calm Calm - N/A   Haze
8:30 AM 80 °F - 67 °F 56% 29.85 in 2 mi Calm Calm - -   Haze
10:10 AM 82.4 °F 82.5 °F 59.0 °F 45% 29.98 in 3.1 mi East 6.9 mph - N/A   Scattered Clouds
11:30 AM 89 °F - 61 °F 29% 29.80 in 6 mi SE 6.9 mph - -   Partly Cloudy
12:10 PM 86.0 °F - 46.4 °F 25% 29.92 in 4.3 mi East 8.1 mph - N/A   Scattered Clouds
1:10 PM 87.8 °F - 46.4 °F 24% 29.89 in 4.3 mi East 2.3 mph - N/A   Scattered Clouds
2:10 PM 87.8 °F - 48.2 °F 25% 29.86 in 4.3 mi ENE 6.9 mph - N/A   Scattered Clouds
3:10 PM 87.8 °F - 50.0 °F 27% 29.83 in 4.3 mi East 4.6 mph - N/A   Scattered Clouds
4:10 PM 86.0 °F - 48.2 °F 27% 29.83 in 4.3 mi NE 5.8 mph - N/A   Scattered Clouds
5:10 PM 86.0 °F - 48.2 °F 27% 29.86 in 4.3 mi NE 9.2 mph - N/A   Scattered Clouds
5:30 PM 86 °F - 57 °F 28% 29.73 in 6 mi NE 5.8 mph - -   Partly Cloudy
6:10 PM 82.4 °F - 46.4 °F 28% 29.89 in 3.7 mi ENE 6.9 mph - N/A   Scattered Clouds
6:40 PM 80.6 °F - 46.4 °F 30% 29.89 in 3.7 mi ENE 5.8 mph - N/A   Scattered Clouds
7:10 PM 80.6 °F - 46.4 °F 30% 29.89 in 3.7 mi ENE 5.8 mph - N/A   Scattered Clouds
7:40 PM 80.6 °F - 48.2 °F 32% 29.92 in 3.7 mi NE 5.8 mph - N/A   Scattered Clouds
8:30 PM 80 °F - 58 °F 36% 29.83 in 2 mi 2.3 mph - -   Haze
8:40 PM 77.0 °F - 50.0 °F 39% 29.98 in - ENE 4.6 mph - N/A   Haze
9:10 PM 77.0 °F - 50.0 °F 39% 29.98 in 3.1 mi ENE 6.9 mph - N/A   Haze
11:30 PM 78 °F - 61 °F 47% 29.85 in 2 mi Calm Calm - -   Haze